When you browse on this site, cookies collect data to enhance your experience and personalize the content and advertising you see.
Visit our Privacy Policy to learn more. By continuing to use the site, you agree to this use of cookies and data.
  • In Hungary
  • List of Countries
  • For 7 days
  • Water Temperature
  • Satellite Maps
  • Weather Map
  • News
  • Weather Widgets
  • user-avatar
    Login

    Hourly Weather Fudżajra

    Today, 19 March, Tuesday

    Time Temperature Precipitation Wind Pressure Humidity
    00:00 +16°C° 0 mm 6 mps 719 mmHg 59%
    01:00 +16°C° 0 mm 6 mps 719 mmHg 61%
    02:00 +16°C° 0 mm 6 mps 719 mmHg 61%
    03:00 +16°C° 0 mm 6 mps 718 mmHg 61%
    04:00 +16°C° 0 mm 6 mps 718 mmHg 62%
    05:00 +16°C° 0 mm 7 mps 718 mmHg 60%
    06:00 +16°C° 0 mm 7 mps 718 mmHg 58%
    07:00 +16°C° 0 mm 7 mps 719 mmHg 56%
    08:00 +17°C° 0 mm 8 mps 719 mmHg 50%
    09:00 +20°C° 0 mm 8 mps 719 mmHg 43%
    10:00 +21°C° 0 mm 9 mps 719 mmHg 37%
    11:00 +22°C° 0 mm 9 mps 719 mmHg 35%
    12:00 +23°C° 0 mm 10 mps 719 mmHg 32%
    13:00 +24°C° 0 mm 11 mps 719 mmHg 30%
    14:00 +24°C° 0 mm 10 mps 718 mmHg 31%
    15:00 +23°C° 0 mm 10 mps 718 mmHg 32%
    16:00 +23°C° 0 mm 9 mps 718 mmHg 33%
    17:00 +22°C° 0 mm 8 mps 718 mmHg 38%
    18:00 +21°C° 0 mm 7 mps 718 mmHg 43%
    19:00 +19°C° 0 mm 6 mps 718 mmHg 48%
    20:00 +19°C° 0 mm 6 mps 718 mmHg 51%
    21:00 +17°C° 0 mm 6 mps 718 mmHg 53%
    22:00 +17°C° 0 mm 5 mps 718 mmHg 56%
    23:00 +17°C° 0 mm 5 mps 718 mmHg 57%

    Tomorrow, 20 March, Wednesday

    Time Temperature Precipitation Wind Pressure Humidity
    00:00 +17°C° 0 mm 4 mps 717 mmHg 59%
    01:00 +17°C° 0 mm 4 mps 717 mmHg 61%
    02:00 +17°C° 0 mm 4 mps 717 mmHg 63%
    03:00 +15°C° 0 mm 4 mps 717 mmHg 64%
    04:00 +16°C° 0 mm 3 mps 716 mmHg 66%
    05:00 +16°C° 0 mm 3 mps 717 mmHg 67%
    06:00 +16°C° 0 mm 3 mps 717 mmHg 67%
    07:00 +16°C° 0 mm 3 mps 717 mmHg 68%
    08:00 +18°C° 0 mm 3 mps 718 mmHg 59%
    09:00 +19°C° 0 mm 3 mps 718 mmHg 50%
    10:00 +21°C° 0 mm 3 mps 719 mmHg 41%
    11:00 +24°C° 0 mm 3 mps 718 mmHg 35%
    12:00 +25°C° 0 mm 3 mps 718 mmHg 30%
    13:00 +27°C° 0 mm 3 mps 718 mmHg 24%
    14:00 +27°C° 0 mm 4 mps 717 mmHg 23%
    15:00 +27°C° 0 mm 5 mps 717 mmHg 22%
    16:00 +28°C° 0 mm 6 mps 717 mmHg 21%
    17:00 +27°C° 0 mm 5 mps 717 mmHg 24%
    18:00 +26°C° 0 mm 4 mps 717 mmHg 28%
    19:00 +24°C° 0 mm 3 mps 717 mmHg 31%
    20:00 +24°C° 0 mm 3 mps 717 mmHg 34%
    21:00 +23°C° 0 mm 2 mps 717 mmHg 36%
    22:00 +23°C° 0 mm 2 mps 718 mmHg 38%
    23:00 +21°C° 0 mm 2 mps 717 mmHg 40%

    Day after tomorrow, 21 March, Thursday

    Time Temperature Precipitation Wind Pressure Humidity
    00:00 +21°C° 0 mm 2 mps 717 mmHg 42%
    01:00 +20°C° 0 mm 2 mps 717 mmHg 45%
    02:00 +20°C° 0 mm 2 mps 716 mmHg 45%
    03:00 +19°C° 0 mm 2 mps 716 mmHg 45%
    04:00 +19°C° 0 mm 2 mps 716 mmHg 46%
    05:00 +19°C° 0 mm 2 mps 716 mmHg 44%
    06:00 +19°C° 0 mm 2 mps 716 mmHg 42%
    07:00 +20°C° 0 mm 1 mps 717 mmHg 41%
    08:00 +22°C° 0 mm 1 mps 717 mmHg 33%
    09:00 +24°C° 0 mm 1 mps 718 mmHg 25%
    10:00 +26°C° 0 mm 1 mps 719 mmHg 18%
    11:00 +28°C° 0 mm 1 mps 718 mmHg 18%
    12:00 +29°C° 0 mm 1 mps 718 mmHg 18%
    13:00 +30°C° 0 mm 2 mps 718 mmHg 18%
    14:00 +30°C° 0 mm 2 mps 717 mmHg 19%
    15:00 +30°C° 0 mm 2 mps 717 mmHg 19%
    16:00 +30°C° 0 mm 3 mps 717 mmHg 20%
    17:00 +29°C° 0 mm 3 mps 717 mmHg 24%
    18:00 +28°C° 0 mm 2 mps 717 mmHg 28%
    19:00 +27°C° 0 mm 2 mps 717 mmHg 31%
    20:00 +26°C° 0 mm 2 mps 717 mmHg 35%
    21:00 +25°C° 0 mm 2 mps 718 mmHg 39%
    22:00 +25°C° 0 mm 2 mps 718 mmHg 42%
    23:00 +25°C° 0 mm 2 mps 718 mmHg 42%

    22 March, Friday

    Time Temperature Precipitation Wind Pressure Humidity
    00:00 +25°C° 0 mm 3 mps 718 mmHg 41%
    01:00 +25°C° 0 mm 3 mps 718 mmHg 41%
    02:00 +24°C° 0.5 mm 3 mps 717 mmHg 41%
    03:00 +24°C° 0.5 mm 2 mps 717 mmHg 42%
    04:00 +23°C° 0.5 mm 2 mps 717 mmHg 42%
    05:00 +23°C° 0 mm 2 mps 717 mmHg 43%
    06:00 +23°C° 0 mm 2 mps 718 mmHg 44%
    07:00 +22°C° 0 mm 3 mps 718 mmHg 44%
    08:00 +24°C° 0 mm 3 mps 719 mmHg 42%
    09:00 +25°C° 0 mm 3 mps 719 mmHg 39%
    10:00 +26°C° 0 mm 4 mps 720 mmHg 36%
    11:00 +27°C° 0.1 mm 3 mps 719 mmHg 35%
    12:00 +27°C° 0.1 mm 2 mps 719 mmHg 34%
    13:00 +27°C° 0.1 mm 1 mps 719 mmHg 33%
    14:00 +27°C° 0 mm 2 mps 718 mmHg 33%
    15:00 +27°C° 0 mm 2 mps 718 mmHg 34%
    16:00 +27°C° 0 mm 3 mps 717 mmHg 34%
    17:00 +26°C° 0 mm 3 mps 717 mmHg 40%
    18:00 +25°C° 0 mm 4 mps 717 mmHg 46%
    19:00 +23°C° 0 mm 4 mps 718 mmHg 52%
    20:00 +23°C° 0.1 mm 4 mps 718 mmHg 54%
    21:00 +22°C° 0.1 mm 4 mps 718 mmHg 57%
    22:00 +22°C° 0.1 mm 4 mps 718 mmHg 60%
    23:00 +22°C° 0.2 mm 3 mps 718 mmHg 60%

    23 March, Saturday

    Time Temperature Precipitation Wind Pressure Humidity
    00:00 +21°C° 0.2 mm 3 mps 718 mmHg 60%
    01:00 +21°C° 0.2 mm 3 mps 717 mmHg 61%
    02:00 +21°C° 0 mm 3 mps 717 mmHg 65%
    03:00 +21°C° 0 mm 4 mps 717 mmHg 69%
    04:00 +20°C° 0 mm 4 mps 717 mmHg 73%
    05:00 +20°C° 0.1 mm 4 mps 717 mmHg 74%
    06:00 +20°C° 0.1 mm 4 mps 717 mmHg 76%
    07:00 +20°C° 0.1 mm 4 mps 718 mmHg 77%
    08:00 +21°C° 0.1 mm 4 mps 718 mmHg 74%
    09:00 +22°C° 0.1 mm 4 mps 718 mmHg 72%
    10:00 +23°C° 0.1 mm 4 mps 719 mmHg 69%
    11:00 +23°C° 0.1 mm 4 mps 718 mmHg 69%
    12:00 +23°C° 0.1 mm 4 mps 718 mmHg 69%
    13:00 +23°C° 0.1 mm 4 mps 717 mmHg 70%
    14:00 +23°C° 0 mm 4 mps 717 mmHg 69%
    15:00 +23°C° 0 mm 4 mps 716 mmHg 69%
    16:00 +25°C° 0 mm 4 mps 716 mmHg 69%
    17:00 +23°C° 0 mm 4 mps 716 mmHg 73%
    18:00 +22°C° 0 mm 4 mps 716 mmHg 77%
    19:00 +21°C° 0 mm 3 mps 716 mmHg 81%
    20:00 +21°C° 0 mm 3 mps 716 mmHg 83%
    21:00 +21°C° 0 mm 3 mps 716 mmHg 84%
    22:00 +21°C° 0 mm 3 mps 716 mmHg 86%
    23:00 +21°C° 0 mm 3 mps 715 mmHg 87%

    24 March, Sunday

    Time Temperature Precipitation Wind Pressure Humidity
    00:00 +21°C° 0 mm 3 mps 715 mmHg 88%
    01:00 +21°C° 0 mm 3 mps 714 mmHg 89%
    02:00 +21°C° 1 mm 3 mps 714 mmHg 89%
    03:00 +21°C° 1 mm 2 mps 714 mmHg 89%
    04:00 +21°C° 1 mm 2 mps 714 mmHg 90%
    05:00 +22°C° 1.7 mm 1 mps 714 mmHg 89%
    06:00 +22°C° 1.7 mm 1 mps 715 mmHg 88%
    07:00 +22°C° 1.7 mm 1 mps 715 mmHg 87%
    08:00 +23°C° 0.3 mm 2 mps 716 mmHg 80%
    09:00 +25°C° 0.3 mm 4 mps 716 mmHg 73%
    10:00 +26°C° 0.3 mm 5 mps 716 mmHg 65%
    11:00 +26°C° 0.1 mm 5 mps 715 mmHg 65%
    12:00 +26°C° 0.1 mm 5 mps 715 mmHg 64%
    13:00 +27°C° 0.1 mm 6 mps 714 mmHg 64%
    14:00 +26°C° 0.2 mm 5 mps 713 mmHg 69%
    15:00 +25°C° 0.2 mm 5 mps 713 mmHg 74%
    16:00 +23°C° 0.2 mm 5 mps 712 mmHg 79%
    17:00 +23°C° 0.1 mm 4 mps 712 mmHg 79%
    18:00 +23°C° 0.1 mm 4 mps 712 mmHg 78%
    19:00 +22°C° 0.1 mm 3 mps 712 mmHg 78%
    20:00 +22°C° 0 mm 3 mps 712 mmHg 78%
    21:00 +22°C° 0 mm 3 mps 712 mmHg 78%
    22:00 +22°C° 0 mm 3 mps 712 mmHg 78%
    23:00 +22°C° 0 mm 3 mps 712 mmHg 76%
    Show more